TimeEDT,TemperatureF,Dew PointF,Humidity,Sea Level PressureIn,VisibilityMPH,Wind Direction,Wind SpeedMPH,Gust SpeedMPH,PrecipitationIn,Events,Conditions,WindDirDegrees,DateUTC
12:53 AM,51.1,39.0,63,29.91,10.0,WNW,10.4,19.6,N/A,,Clear,300,2012-10-22 04:53:00
1:53 AM,48.9,37.9,66,29.91,10.0,WSW,3.5,-,N/A,,Clear,250,2012-10-22 05:53:00
2:53 AM,48.0,37.9,68,29.91,10.0,Variable,3.5,-,N/A,,Mostly Cloudy,0,2012-10-22 06:53:00
3:53 AM,48.0,39.0,71,29.91,10.0,SSW,3.5,-,N/A,,Partly Cloudy,210,2012-10-22 07:53:00
4:53 AM,44.1,37.9,79,29.92,10.0,Calm,Calm,-,N/A,,Clear,0,2012-10-22 08:53:00
5:53 AM,42.1,39.0,89,29.94,10.0,Calm,Calm,-,N/A,,Scattered Clouds,0,2012-10-22 09:53:00
6:53 AM,42.1,39.0,89,29.94,10.0,Calm,Calm,-,N/A,,Clear,0,2012-10-22 10:53:00
9:53 AM,55.9,41.0,57,29.96,10.0,WNW,10.4,25.3,N/A,,Clear,300,2012-10-22 13:53:00
10:53 AM,57.9,41.0,53,29.96,10.0,NW,10.4,25.3,N/A,,Clear,320,2012-10-22 14:53:00
11:53 AM,59.0,41.0,51,29.96,10.0,WNW,12.7,24.2,N/A,,Clear,290,2012-10-22 15:53:00
12:53 PM,59.0,41.0,51,29.96,10.0,WNW,12.7,20.7,N/A,,Scattered Clouds,300,2012-10-22 16:53:00
1:53 PM,57.9,39.0,49,29.96,10.0,WNW,9.2,18.4,N/A,,Partly Cloudy,300,2012-10-22 17:53:00
2:53 PM,60.1,39.0,46,29.96,10.0,West,8.1,18.4,N/A,,Clear,280,2012-10-22 18:53:00
3:53 PM,60.1,39.9,47,29.96,10.0,WNW,10.4,17.3,N/A,,Partly Cloudy,300,2012-10-22 19:53:00
4:53 PM,59.0,39.9,49,29.98,10.0,NW,5.8,17.3,N/A,,Clear,310,2012-10-22 20:53:00
5:53 PM,55.9,39.9,55,30.00,10.0,NW,4.6,-,N/A,,Clear,320,2012-10-22 21:53:00
6:53 PM,54.0,41.0,62,30.01,10.0,NW,3.5,-,N/A,,Clear,310,2012-10-22 22:53:00
7:53 PM,46.9,41.0,80,30.02,10.0,Calm,Calm,-,N/A,,Clear,0,2012-10-22 23:53:00
8:53 PM,46.0,42.1,86,30.03,10.0,WSW,3.5,-,N/A,,Clear,250,2012-10-23 00:53:00
9:53 PM,51.1,42.1,71,30.04,10.0,Variable,4.6,-,N/A,,Clear,0,2012-10-23 01:53:00
10:53 PM,48.0,41.0,77,30.04,10.0,NW,4.6,-,N/A,,Clear,310,2012-10-23 02:53:00
11:53 PM,50.0,42.1,74,30.05,10.0,WNW,5.8,-,N/A,,Clear,300,2012-10-23 03:53:00